Regional Weather Roundup
Issued by NWS Lake Charles, LA

Home | Current Version | Previous Version | Text Only | Print | Product List | Glossary On
Versions: 1 2 3 4 5 6 7 8 9 10 11 12 13 14 15 16 17 18 19 20 21 22 23 24 25 26 27 28 29 30 31 32 33 34 35 36 37 38 39 40 41 42 43 44 45 46 47 48 49 50
383
ASUS44 KLCH 051910
RWRLCH
REGIONAL WEATHER ROUNDUP
NATIONAL WEATHER SERVICE LAKE CHARLES LA
200 PM CDT THU MAY 05 2016

Note: "fair" indicates few or no clouds below 12,000 feet with no
significant weather and/or obstructions to visibility.


ACROSS SOUTHEAST TEXAS

CITY           SKY/WX    TMP DP  RH WIND       PRES   REMARKS
BEAUMONT       SUNNY     83  49  30 NW10      29.98F
BEAUMONT CITY  FAIR      82  45  27 NW9G16    30.00F
ORANGE         CLEAR     79  39  23 NW6       30.00F
JASPER         SUNNY     76  44  31 N10       30.04F
$$

ACROSS CENTRAL LOUISIANA

CITY           SKY/WX    TMP DP  RH WIND       PRES   REMARKS
LEESVILLE      SUNNY     77  45  32 N10       29.99F
FULLERTON      FAIR      78  42  27 VRB5      29.96F
ALEXANDRIA INT SUNNY     79  45  29 NW14G20   29.97F
ESLER FIELD    SUNNY     79  43  27 NW9G20    29.98F
DERIDDER       FAIR      78  43  29 NW10      30.01F
OAKDALE        CLEAR     78  45  31 NW7       29.98F
OPELOUSAS      FAIR      77  50  39 NW12G21   29.97F
$$

ACROSS SOUTHWEST AND SOUTH CENTRAL LOUISIANA

CITY           SKY/WX    TMP DP  RH WIND       PRES   REMARKS
SULPHUR        CLEAR     80  45  29 NW3       29.99F
LAKE CHARLES   SUNNY     81  46  29 N15       29.97F
CHENNAULT INT  NOT AVBL
CAMERON PHI    CLEAR     77  46  33 N12       30.01F
DEQUINCY       FAIR      77  46  32 N5G16     29.99F
JENNINGS       FAIR      77  50  38 NW8       29.98F
LAFAYETTE      SUNNY     80  46  30 NW15G21   29.96F
NEW IBERIA     SUNNY     80  49  33 N12       29.96F
ABBEVILLE      FAIR      79  49  34 NW13G20   29.97S
PATTERSON      NOT AVBL
SALT POINT       N/A     79  51  37 NW9       29.93F
$$

SELECTED SITES ACROSS THE REGION

CITY           SKY/WX    TMP DP  RH WIND       PRES   REMARKS
HOUSTON BUSH   MOSUNNY   83  50  31 N12       30.01F
HOUSTON HOBBY  MOSUNNY   85  46  25 N7        29.99F
GALVESTON      SUNNY     80  47  31 NE7       30.01F
COLLEGE STAT   SUNNY     82  49  31 NW9       30.04F
CONROE         SUNNY     82  46  28 NW8       30.03F
HUNTSVILLE     SUNNY     80  45  28 VRB6      30.03F
LUFKIN         SUNNY     78  44  29 NW6       30.02F
SHREVEPORT     SUNNY     76  45  33 N6        30.01F
MONROE         SUNNY     76  47  35 N9G18     29.99F
NATCHEZ MS     SUNNY     73  45  35 N13       29.97F
BATON ROUGE    SUNNY     79  47  32 VRB5      29.94F
N.O. INTL ARPT SUNNY     80  51  36 N8G17     29.92F
SLIDELL        SUNNY     78  50  37 NW5       29.90F
$$

MARINE REPORTS

STATION/POSITION TIME  SKY/WX   TEMP    WIND        PRES    VSBY
                                AIR SEA DIR/SP/G
                 (UTC)          (F)     (DEG/KT/KT) (MB)    (MI)
BUOY 30 S HIGH I 1850            74 78  260/  6/  6 1015.7F
WVE H/P(F/S)=  2/ 3

SEA RIM ST PARK  1900            79     340/ 13/ 15 1015.9F
PORT ARTHUR      1800               74              1016.1F
SABINE PASS N    1800            76 76              1017.3F
TEXAS POINT      NOT AVBL
CALCASIEU PASS   1800            75 75              1014.9F
LK CHARLES BEACH 1800            77 74              1016.1F
MARSH ISLAND     1800            74     100/  5/  7   N/A
FRESH WATER LOCK 1800            76 75              1015.6F
AMERADA PASS     1800            76 75              1014.1F
$$




USA.gov is the U.S. government's official web portal to all federal, state and local government web resources and services.